#timestamp,LO_Frequency,Hit,StdDev 
1574488815.9,286047000.1,N
1574488835.7,286047002.3,N
1574488855.6,286047002.0,N
1574488875.4,286047001.3,N
1574488895.2,286047002.0,N
1574488915.1,286047003.5,N
1574488916.0,286047003.5,N
1574488935.8,286047003.5,N
1574488955.7,286047005.8,Y
1574488975.5,286047001.3,P
1574488995.3,286047004.2,P
1574489015.2,286047003.8,N
1574489035.0,286047002.0,N
1574489035.9,286047002.0,N
1574489055.7,286047002.0,N
1574489075.6,286047002.0,N
1574489095.4,286047004.2,Y
1574489115.3,286047002.2,P
1574489135.1,286047002.6,P
1574489136.0,286047002.6,P
1574489155.8,286047001.8,Y
1574489175.7,286047000.8,P
1574489195.5,286047000.7,N
1574489215.4,286047001.1,N
1574489235.2,286047000.4,N
1574489255.0,286047001.3,N
1574489255.9,286047001.3,N
1574489275.8,286047003.8,Y
1574489295.6,286047001.9,P
1574489315.4,286047001.8,P
1574489335.3,286047001.7,P
1574489355.1,286047002.2,Y
1574489375.9,286046998.2,P
1574489395.7,286047000.8,N
1574489415.5,286046998.4,N
1574489435.4,286046998.4,N
1574489455.2,286046999.9,N
1574489475.0,286046999.8,N
1574489475.9,286046999.8,N
1574489495.8,286046999.8,N
1574489515.6,286047001.5,N
1574489535.5,286047001.9,N
1574489555.3,286047002.0,N
1574489575.1,286047001.5,N
1574489595.9,286047002.4,N
1574489615.7,286047002.6,N
1574489635.5,286047002.5,N
1574489655.4,286047004.2,N
1574489675.2,286047004.4,N
1574489695.1,286047003.2,N
1574489696.0,286047003.2,N
1574489715.8,286047003.5,N
1574489735.6,286047005.3,N
1574489755.5,286047005.8,N
1574489775.3,286047005.7,N
1574489795.1,286047004.8,N
1574489815.9,286047004.1,N
1574489835.7,286047001.9,N
1574489855.6,286047004.3,N
1574489875.4,286047002.1,N
1574489895.2,286047002.1,N
1574489945.1,286047002.0,E
1574489955.0,286047000.5,N
1574489955.9,286047000.5,P
1574489975.8,286046998.4,P
1574489995.6,286047000.9,N
1574490015.4,286047001.0,N
1574490035.3,286047002.7,N
1574490055.1,286047002.5,N
1574490075.8,286047003.9,N
1574490095.7,286047003.9,N
1574490115.5,286047004.3,N
1574490135.4,286047002.6,N
1574490155.2,286047002.8,N
1574490175.0,286047000.2,N
1574490175.9,286047000.2,N
1574490195.8,286047000.3,N
1574490215.6,286046999.9,N
1574490235.4,286047002.1,N
1574490255.3,286047002.5,N
1574490275.1,286047000.0,N
1574490295.9,286046999.7,N
1574490315.7,286047001.9,N
1574490335.5,286047001.3,N
1574490355.4,286046999.8,N
1574490375.2,286047002.0,N
1574490395.0,286047000.5,N
1574490396.0,286047000.5,N
1574490415.8,286047002.0,N
1574490435.6,286046999.8,N
1574490455.5,286046999.9,N
1574490475.3,286047002.4,N
1574490495.1,286047004.2,N
1574490515.9,286047001.6,N
1574490535.7,286047003.4,N
1574490555.5,286047003.1,N
1574490575.4,286047003.3,N
1574490595.2,286047005.7,Y
1574490615.1,286047002.0,P
1574490616.0,286047002.0,P
1574490635.8,286047001.9,P
1574490655.6,286047002.6,Y
1574490675.5,286046999.2,P
1574490695.3,286046997.0,N
1574490715.2,286046999.4,N
1574490735.9,286046998.5,N
1574490755.7,286047001.0,N
1574490775.6,286047002.4,N
1574490795.4,286047000.4,N
1574490815.3,286047001.2,N
1574490835.1,286046998.2,N
1574490836.0,286046998.2,N
1574490855.8,286047000.1,N
1574490875.7,286047000.4,N
1574490895.5,286046998.2,N
1574490915.3,286046998.2,N
1574490935.2,286047001.1,N
1574490955.0,286046998.8,N
1574490955.9,286046998.8,N
1574490975.8,286047000.4,N
1574490995.6,286046999.7,N
1574491015.4,286047001.2,N
1574491035.3,286046998.2,N
1574491055.1,286046998.6,N
1574491075.9,286046998.2,N
1574491095.7,286047001.2,N
1574491115.5,286046999.3,N
1574491135.4,286046998.5,N
1574491155.2,286047000.8,N
1574491175.0,286047000.2,N
1574491175.9,286047000.2,N
1574491195.8,286047001.2,N
1574491215.6,286046998.6,N
1574491235.5,286046998.7,N
1574491255.3,286046998.9,N
1574491275.1,286046998.8,N
1574491295.9,286046998.7,N
1574491315.7,286046996.7,N
1574491335.6,286046996.7,N
1574491355.4,286046997.8,N
1574491375.2,286046996.7,N
1574491395.1,286046998.0,N
1574491396.0,286046998.0,N
1574491415.8,286046994.9,Y
1574491435.7,286046999.6,P
1574491455.5,286046997.0,P
1574491475.3,286046998.8,N
1574491495.2,286046999.1,N
1574491515.0,286046998.4,N
1574491515.9,286046998.4,N
1574491535.7,286046999.3,N
1574491555.6,286046998.5,N
1574491575.4,286047001.1,N
1574491595.3,286046998.6,N
1574491615.1,286046998.9,N
1574491635.8,286046998.1,N
1574491655.7,286047000.9,N
1574491675.5,286046998.2,N
1574491695.4,286046999.1,N
1574491715.2,286046997.8,N
1574491735.0,286046996.8,Y
1574491735.9,286046996.8,P
1574491755.8,286047000.5,N
1574491775.6,286046999.7,N
1574491795.5,286047001.0,N
1574491815.3,286047000.9,N
1574491835.1,286046998.5,N
1574491855.9,286046998.2,N
1574491875.7,286047000.6,N
1574491895.5,286047000.3,N
1574491915.4,286047000.7,N
1574491935.2,286047002.2,N
1574491955.1,286047002.7,N
1574491956.0,286047002.7,N
1574491975.8,286046999.7,N
1574491995.6,286046999.7,N
1574492015.5,286047001.0,N
1574492035.3,286047000.0,N
1574492055.1,286047000.9,N
1574492075.9,286047000.1,N
1574492095.7,286046999.8,N
1574492115.6,286047001.5,N
1574492135.4,286047001.4,N
1574492155.2,286047001.3,N
1574492175.1,286047003.8,N
1574492176.0,286047003.8,N
1574492195.8,286047001.6,N
1574492215.7,286046999.7,N
1574492235.5,286047002.5,N
1574492255.3,286047000.9,N
1574492275.2,286046998.2,N
1574492295.0,286047000.3,N
1574492295.9,286047000.3,N
1574492315.7,286047000.0,N
1574492335.6,286047002.6,N
1574492355.4,286047002.2,N
1574492375.3,286047001.8,N
1574492395.1,286047002.4,N
1574492396.0,286047002.4,N
